This is the latest recevied weather packets stored in our database for station/object PD2BVG. If no packets are shown the sender has not sent any weather packets the latest 10 day(s).
| Time | Temp. | Humidity | Pressure | Rain* | Wind** | Luminosity | Snow |
|---|---|---|---|---|---|---|---|
| 1788111478 | 20° C | 86% | 1010.6 hPa | 0 mm | - | 58 W/m² | - |
| 1788111418 | 20° C | 85% | 1010.6 hPa | 0 mm | - | 60 W/m² | - |
| 1788111358 | 20° C | 85% | 1010.6 hPa | 0 mm | - | 62 W/m² | - |
| 1788111298 | 20° C | 85% | 1010.6 hPa | 0 mm | - | 62 W/m² | - |
| 1788111237 | 20° C | 85% | 1010.8 hPa | 0 mm | - | 63 W/m² | - |
| 1788111178 | 20° C | 85% | 1010.8 hPa | 0 mm | - | 58 W/m² | - |
| 1788111119 | 20° C | 85% | 1010.8 hPa | 0 mm | - | 58 W/m² | - |
| 1788111058 | 20° C | 85% | 1010.8 hPa | 0 mm | - | 55 W/m² | - |
| 1788110998 | 20° C | 85% | 1010.8 hPa | 0 mm | - | 55 W/m² | - |
| 1788110938 | 20.56° C | 85% | 1010.7 hPa | 0 mm | - | 53 W/m² | - |
| 1788110878 | 20.56° C | 84% | 1010.7 hPa | 0 mm | - | 51 W/m² | - |
| 1788110820 | 20.56° C | 84% | 1010.7 hPa | 0 mm | - | 51 W/m² | - |
| 1788110760 | 20.56° C | 84% | 1010.8 hPa | 0 mm | - | 56 W/m² | - |
| 1788110697 | 20.56° C | 83% | 1010.8 hPa | 0 mm | - | 56 W/m² | - |
| 1788110638 | 20.56° C | 83% | 1010.9 hPa | 0 mm | - | 56 W/m² | - |
| 1788110577 | 20.56° C | 83% | 1010.8 hPa | 0 mm | - | 56 W/m² | - |
| 1788110519 | 20.56° C | 83% | 1010.9 hPa | 0 mm | - | 56 W/m² | - |
| 1788110458 | 20.56° C | 82% | 1010.8 hPa | 0 mm | - | 58 W/m² | - |
| 1788110398 | 20.56° C | 83% | 1010.8 hPa | 0 mm | - | 58 W/m² | - |
| 1788110340 | 20.56° C | 83% | 1010.8 hPa | 0 mm | - | 60 W/m² | - |
| 1788110279 | 20.56° C | 83% | 1010.8 hPa | 0 mm | - | 63 W/m² | - |
| 1788110218 | 20.56° C | 83% | 1010.9 hPa | 0 mm | - | 69 W/m² | - |
| 1788110158 | 20.56° C | 82% | 1010.8 hPa | 0 mm | - | 69 W/m² | - |
| 1788110097 | 20.56° C | 82% | 1010.9 hPa | 0 mm | - | 70 W/m² | - |
| 1788110038 | 20.56° C | 82% | 1010.9 hPa | 0 mm | - | 76 W/m² | - |
* Rain latest hour (hover to see other rain measurements)
** Current wind speed in m/s (hover to see current wind gust speed)